�������l�o���
Date,Time,MP-1(��Sv/h),MP-2(��Sv/h),MP-3(��Sv/h),MP-4(��Sv/h),MP-5(��Sv/h),MP-6(��Sv/h),MP-7(��Sv/h),MP-8(��Sv/h),����,����(m/s),���J
2021/10/06,00:00,0.595,0.893,0.568,1.084,0.771,0.362,0.628,0.588,�쐼,7.1,��
2021/10/06,00:10,0.596,0.893,0.565,1.082,0.770,0.362,0.628,0.589,��쐼,5.2,��
2021/10/06,00:20,0.595,0.894,0.567,1.082,0.770,0.362,0.627,0.587,�쐼,3.3,��
2021/10/06,00:30,0.595,0.891,0.567,1.083,0.772,0.362,0.627,0.588,�쐼,6.9,��
2021/10/06,00:40,0.596,0.891,0.567,1.083,0.771,0.363,0.629,0.587,��쐼,6.5,��
2021/10/06,00:50,0.595,0.891,0.568,1.082,0.772,0.362,0.628,0.587,�쐼,4.6,��
2021/10/06,01:00,0.596,0.893,0.568,1.085,0.771,0.363,0.628,0.589,��쐼,5.9,��
2021/10/06,01:10,0.595,0.892,0.567,1.084,0.771,0.362,0.629,0.589,��,5.9,��
2021/10/06,01:20,0.596,0.892,0.569,1.084,0.771,0.362,0.628,0.588,��,6.0,��
2021/10/06,01:30,0.598,0.895,0.570,1.085,0.771,0.362,0.629,0.587,��쐼,6.6,��
2021/10/06,01:40,0.597,0.893,0.569,1.083,0.771,0.361,0.629,0.588,��,5.5,��
2021/10/06,01:50,0.597,0.894,0.570,1.084,0.772,0.362,0.627,0.588,��,6.3,��
2021/10/06,02:00,0.597,0.895,0.571,1.085,0.771,0.363,0.626,0.588,��,5.7,��
2021/10/06,02:10,0.597,0.893,0.569,1.084,0.772,0.362,0.629,0.587,��쓌,4.6,��
2021/10/06,02:20,0.597,0.894,0.573,1.083,0.771,0.363,0.629,0.588,��,4.7,��
2021/10/06,02:30,0.597,0.896,0.570,1.085,0.773,0.361,0.630,0.588,��,2.6,��
2021/10/06,02:40,0.598,0.894,0.570,1.086,0.773,0.362,0.629,0.587,���쐼,3.3,��
2021/10/06,02:50,0.596,0.897,0.569,1.084,0.770,0.363,0.629,0.589,���쐼,2.6,��
2021/10/06,03:00,0.597,0.898,0.570,1.085,0.770,0.362,0.630,0.587,���쐼,3.0,��
2021/10/06,03:10,0.597,0.894,0.571,1.085,0.771,0.361,0.629,0.588,���쐼,3.9,�L
2021/10/06,03:20,0.598,0.895,0.570,1.084,0.772,0.362,0.629,0.587,���쐼,3.9,��
2021/10/06,03:30,0.597,0.895,0.572,1.085,0.772,0.362,0.628,0.588,��,3.9,��
2021/10/06,03:40,0.598,0.896,0.571,1.084,0.770,0.362,0.628,0.588,���쐼,0.6,��
2021/10/06,03:50,0.597,0.898,0.570,1.084,0.771,0.363,0.629,0.587,��,1.2,��
2021/10/06,04:00,0.597,0.897,0.569,1.086,0.773,0.363,0.627,0.589,���k��,1.1,��
2021/10/06,04:10,0.597,0.898,0.570,1.084,0.773,0.361,0.630,0.586,��,1.5,��
2021/10/06,04:20,0.599,0.897,0.568,1.086,0.770,0.361,0.628,0.586,��,3.1,��
2021/10/06,04:30,0.600,0.895,0.570,1.083,0.771,0.363,0.627,0.588,���k��,2.5,��
2021/10/06,04:40,0.597,0.896,0.569,1.084,0.771,0.363,0.628,0.590,�k,5.0,��
2021/10/06,04:50,0.596,0.893,0.570,1.085,0.772,0.363,0.629,0.588,�k,6.1,��
2021/10/06,05:00,0.597,0.894,0.569,1.087,0.770,0.361,0.627,0.588,�k�k��,6.6,��
2021/10/06,05:10,0.597,0.898,0.569,1.086,0.772,0.362,0.627,0.589,�k�k��,6.1,��
2021/10/06,05:20,0.597,0.895,0.569,1.084,0.773,0.362,0.628,0.588,�k,5.6,��
2021/10/06,05:30,0.595,0.896,0.568,1.083,0.770,0.363,0.628,0.587,�k,6.8,��
2021/10/06,05:40,0.595,0.894,0.569,1.084,0.771,0.362,0.626,0.586,�k,6.9,��
2021/10/06,05:50,0.595,0.892,0.568,1.083,0.770,0.361,0.629,0.586,�k�k��,5.8,�L
2021/10/06,06:00,0.596,0.892,0.568,1.085,0.769,0.361,0.626,0.587,�k,5.2,��
2021/10/06,06:10,0.595,0.892,0.565,1.085,0.769,0.359,0.626,0.587,�k,5.0,��
2021/10/06,06:20,0.595,0.892,0.568,1.082,0.770,0.361,0.627,0.586,�k,5.9,��
2021/10/06,06:30,0.595,0.892,0.569,1.083,0.769,0.361,0.627,0.586,�k,5.9,��
2021/10/06,06:40,0.594,0.893,0.569,1.084,0.768,0.360,0.627,0.586,�k,5.8,�L
2021/10/06,06:50,0.595,0.894,0.569,1.084,0.768,0.359,0.626,0.588,�k,6.6,�L
2021/10/06,07:00,0.593,0.893,0.570,1.085,0.768,0.359,0.625,0.588,�k,6.5,�L
2021/10/06,07:10,0.592,0.894,0.568,1.084,0.770,0.361,0.624,0.587,�k,5.6,��
2021/10/06,07:20,0.595,0.891,0.568,1.086,0.769,0.360,0.626,0.586,�k�k��,7.5,��
2021/10/06,07:30,0.595,0.892,0.568,1.084,0.770,0.359,0.626,0.586,�k�k��,8.3,�L
2021/10/06,07:40,0.596,0.894,0.568,1.084,0.770,0.359,0.625,0.586,�k��,8.9,�L
2021/10/06,07:50,0.594,0.893,0.568,1.085,0.771,0.361,0.626,0.585,�k�k��,9.7,�L
2021/10/06,08:00,0.596,0.891,0.567,1.084,0.768,0.359,0.626,0.585,�k��,8.3,�L
2021/10/06,08:10,0.596,0.891,0.568,1.085,0.769,0.360,0.624,0.585,�k��,7.4,�L
2021/10/06,08:20,0.594,0.893,0.568,1.085,0.771,0.359,0.625,0.586,�k��,7.1,�L
2021/10/06,08:30,0.593,0.888,0.568,1.085,0.770,0.360,0.624,0.586,�k��,7.4,�L
2021/10/06,08:40,0.594,0.889,0.566,1.085,0.771,0.360,0.626,0.584,�k�k��,5.7,�L
2021/10/06,08:50,0.597,0.886,0.567,1.081,0.768,0.362,0.625,0.584,�k��,6.1,�L
2021/10/06,09:00,0.596,0.885,0.566,1.085,0.768,0.364,0.625,0.585,�k�k��,5.7,�L
2021/10/06,09:10,0.596,0.884,0.566,1.084,0.767,0.363,0.624,0.584,�k�k��,6.6,�L
2021/10/06,09:20,0.596,0.883,0.567,1.082,0.769,0.364,0.622,0.583,�k�k��,6.7,�L
2021/10/06,09:30,0.596,0.883,0.567,1.085,0.768,0.364,0.626,0.584,�k��,6.6,�L
2021/10/06,09:40,0.594,0.882,0.565,1.083,0.766,0.364,0.622,0.583,�k�k��,6.3,�L
2021/10/06,09:50,0.594,0.880,0.565,1.084,0.765,0.366,0.624,0.584,�k��,6.8,�L
2021/10/06,10:00,0.595,0.880,0.566,1.080,0.765,0.365,0.625,0.584,�k��,5.8,�L
2021/10/06,10:10,0.596,0.877,0.565,1.080,0.765,0.367,0.623,0.584,�k��,5.2,�L
2021/10/06,10:20,0.597,0.875,0.568,1.078,0.762,0.367,0.623,0.582,�k�k��,5.9,�L
2021/10/06,10:30,0.595,0.872,0.567,1.072,0.760,0.367,0.621,0.581,�k��,4.0,�L
2021/10/06,10:40,0.595,0.868,0.569,1.062,0.753,0.368,0.622,0.581,�k�k��,4.4,�L
2021/10/06,10:50,0.591,0.865,0.570,1.056,0.749,0.371,0.617,0.581,�k��,4.0,�L
2021/10/06,11:00,0.591,0.863,0.572,1.053,0.746,0.370,0.618,0.581,�k��,6.3,�L
2021/10/06,11:10,0.588,0.860,0.573,1.046,0.745,0.373,0.618,0.577,�k�k��,4.7,�L
2021/10/06,11:20,0.586,0.859,0.571,1.043,0.745,0.374,0.617,0.578,�k��,6.2,�L
2021/10/06,11:30,0.586,0.860,0.572,1.040,0.744,0.373,0.615,0.577,�k��,5.3,�L
2021/10/06,11:40,0.585,0.861,0.570,1.034,0.741,0.369,0.615,0.577,�k��,5.6,�L
2021/10/06,11:50,0.587,0.863,0.569,1.039,0.743,0.370,0.614,0.577,�k��,5.9,�L
2021/10/06,12:00,0.588,0.862,0.568,1.038,0.739,0.369,0.615,0.576,�k��,5.5,�L
2021/10/06,12:10,0.587,0.861,0.569,1.034,0.739,0.371,0.614,0.576,�k�k��,5.8,�L
2021/10/06,12:20,0.588,0.859,0.567,1.038,0.738,0.369,0.614,0.576,�k�k��,5.8,�L
2021/10/06,12:30,0.585,0.859,0.567,1.036,0.739,0.368,0.614,0.575,�k�k��,3.8,�L
2021/10/06,12:40,0.584,0.860,0.565,1.036,0.735,0.372,0.612,0.576,�k�k��,4.4,�L
2021/10/06,12:50,0.582,0.856,0.562,1.035,0.737,0.370,0.613,0.574,�k,4.0,�L
2021/10/06,13:00,0.580,0.853,0.561,1.033,0.735,0.367,0.613,0.574,�k�k��,4.0,�L
2021/10/06,13:10,0.580,0.851,0.557,1.030,0.729,0.366,0.610,0.572,�k,4.5,�L
2021/10/06,13:20,0.579,0.849,0.557,1.032,0.729,0.364,0.611,0.572,�k,3.3,�L
2021/10/06,13:30,0.581,0.850,0.555,1.030,0.729,0.362,0.612,0.573,�k,3.3,��
2021/10/06,13:40,0.578,0.850,0.553,1.032,0.727,0.360,0.612,0.573,�k,2.9,�L
2021/10/06,13:50,0.578,0.849,0.552,1.028,0.726,0.359,0.611,0.575,�k,3.8,�L
2021/10/06,14:00,0.576,0.848,0.549,1.030,0.725,0.357,0.611,0.574,�k,4.6,�L
2021/10/06,14:10,0.575,0.846,0.548,1.029,0.726,0.355,0.612,0.574,�k,4.6,�L
2021/10/06,14:20,0.573,0.846,0.545,1.029,0.724,0.355,0.613,0.573,�k�k��,4.6,�L
2021/10/06,14:30,0.572,0.844,0.544,1.030,0.724,0.355,0.612,0.573,�k�k��,3.7,��
2021/10/06,14:40,0.571,0.845,0.545,1.033,0.723,0.353,0.611,0.572,�k��,3.8,��
2021/10/06,14:50,0.569,0.843,0.544,1.032,0.722,0.353,0.613,0.573,�k�k��,4.3,��
2021/10/06,15:00,0.570,0.844,0.543,1.031,0.723,0.351,0.612,0.573,�k�k��,3.6,��
2021/10/06,15:10,0.569,0.846,0.542,1.032,0.724,0.352,0.610,0.572,�k�k��,3.8,��
2021/10/06,15:20,0.570,0.845,0.542,1.034,0.724,0.351,0.613,0.573,�k�k��,3.9,��
2021/10/06,15:30,0.569,0.844,0.543,1.033,0.725,0.352,0.611,0.574,�k�k��,3.3,��
2021/10/06,15:40,0.570,0.844,0.545,1.034,0.723,0.351,0.613,0.573,�k�k��,2.6,��
2021/10/06,15:50,0.570,0.847,0.543,1.035,0.725,0.351,0.610,0.572,�k��,3.4,��
2021/10/06,16:00,0.571,0.846,0.544,1.034,0.725,0.351,0.610,0.573,�k�k��,2.8,��
2021/10/06,16:10,0.570,0.848,0.543,1.034,0.727,0.352,0.611,0.572,�k�k��,3.0,��
2021/10/06,16:20,0.571,0.848,0.543,1.037,0.724,0.351,0.611,0.574,�k��,3.3,��
2021/10/06,16:30,0.570,0.847,0.542,1.037,0.726,0.351,0.610,0.573,�k��,3.1,��
2021/10/06,16:40,0.571,0.848,0.544,1.036,0.726,0.351,0.610,0.575,�k��,2.0,��
2021/10/06,16:50,0.571,0.848,0.543,1.038,0.728,0.352,0.611,0.573,�k��,2.8,��
2021/10/06,17:00,0.572,0.849,0.545,1.036,0.728,0.351,0.609,0.574,�k��,3.0,��
2021/10/06,17:10,0.572,0.850,0.546,1.036,0.728,0.353,0.612,0.575,�k��,2.9,��
2021/10/06,17:20,0.572,0.853,0.545,1.038,0.729,0.352,0.610,0.576,�k��,2.9,��
2021/10/06,17:30,0.572,0.850,0.546,1.037,0.729,0.352,0.610,0.575,�k��,3.1,��
2021/10/06,17:40,0.571,0.852,0.545,1.042,0.729,0.352,0.610,0.577,�k��,3.1,��
2021/10/06,17:50,0.573,0.853,0.545,1.038,0.730,0.352,0.611,0.575,�k��,3.5,��
2021/10/06,18:00,0.573,0.852,0.547,1.038,0.731,0.351,0.612,0.577,�k��,3.5,��
2021/10/06,18:10,0.574,0.852,0.546,1.038,0.731,0.353,0.614,0.576,�k��,3.1,��
2021/10/06,18:20,0.574,0.853,0.548,1.038,0.732,0.352,0.613,0.576,�k��,2.9,��
2021/10/06,18:30,0.573,0.853,0.546,1.040,0.731,0.353,0.612,0.574,�k��,2.6,��
2021/10/06,18:40,0.576,0.852,0.547,1.037,0.732,0.352,0.614,0.574,�k��,3.4,��
2021/10/06,18:50,0.574,0.850,0.547,1.039,0.731,0.353,0.614,0.576,�k��,2.6,��
2021/10/06,19:00,0.574,0.851,0.546,1.039,0.732,0.354,0.613,0.577,�k��,2.9,��
2021/10/06,19:10,0.574,0.853,0.546,1.039,0.734,0.354,0.613,0.575,�k�k��,3.0,��
2021/10/06,19:20,0.574,0.854,0.546,1.040,0.731,0.352,0.613,0.576,�k�k��,3.2,��
2021/10/06,19:30,0.575,0.852,0.543,1.039,0.733,0.353,0.614,0.577,�k��,2.3,��
2021/10/06,19:40,0.573,0.852,0.547,1.038,0.733,0.351,0.614,0.576,�k��,2.0,��
2021/10/06,19:50,0.575,0.854,0.545,1.039,0.733,0.353,0.614,0.577,�k��,1.7,��
2021/10/06,20:00,0.574,0.852,0.546,1.040,0.732,0.353,0.614,0.576,�k��,2.0,��
2021/10/06,20:10,0.574,0.854,0.547,1.040,0.733,0.353,0.612,0.576,�k�k��,2.0,��
2021/10/06,20:20,0.574,0.853,0.546,1.041,0.733,0.354,0.612,0.577,�k��,2.3,��
2021/10/06,20:30,0.574,0.856,0.547,1.041,0.734,0.353,0.614,0.577,�k��,3.1,��
2021/10/06,20:40,0.576,0.854,0.546,1.043,0.734,0.354,0.615,0.577,�k��,1.7,��
2021/10/06,20:50,0.575,0.853,0.544,1.041,0.734,0.352,0.614,0.576,�k��,2.2,��
2021/10/06,21:00,0.574,0.854,0.543,1.042,0.734,0.353,0.615,0.577,�k�k��,2.2,��
2021/10/06,21:10,0.575,0.854,0.547,1.042,0.734,0.352,0.614,0.576,�k�k��,2.0,��
2021/10/06,21:20,0.576,0.853,0.544,1.041,0.734,0.353,0.614,0.576,�k��,2.0,��
2021/10/06,21:30,0.575,0.851,0.546,1.043,0.733,0.353,0.614,0.576,�k��,1.7,��
2021/10/06,21:40,0.572,0.853,0.545,1.041,0.733,0.353,0.612,0.577,�k��,1.7,��
2021/10/06,21:50,0.575,0.853,0.547,1.040,0.734,0.353,0.613,0.577,���k��,1.9,��
2021/10/06,22:00,0.576,0.853,0.547,1.044,0.734,0.353,0.614,0.579,���쐼,1.9,��
2021/10/06,22:10,0.574,0.853,0.548,1.043,0.734,0.354,0.613,0.577,��,1.4,��
2021/10/06,22:20,0.576,0.854,0.547,1.042,0.735,0.353,0.613,0.577,���쐼,1.5,��
2021/10/06,22:30,0.575,0.855,0.547,1.044,0.733,0.353,0.614,0.578,���쐼,1.5,��
2021/10/06,22:40,0.574,0.851,0.550,1.043,0.735,0.353,0.613,0.577,���쐼,0.9,��
2021/10/06,22:50,0.574,0.856,0.548,1.040,0.734,0.355,0.612,0.578,�쐼,1.2,��
2021/10/06,23:00,0.574,0.854,0.548,1.042,0.734,0.354,0.614,0.576,���쐼,1.2,��
2021/10/06,23:10,0.574,0.854,0.548,1.042,0.737,0.354,0.614,0.578,�쐼,1.4,��
2021/10/06,23:20,0.574,0.852,0.547,1.042,0.734,0.353,0.614,0.577,�쐼,1.7,��
2021/10/06,23:30,0.574,0.856,0.548,1.043,0.733,0.353,0.612,0.577,�쐼,1.5,��
2021/10/06,23:40,0.574,0.854,0.547,1.042,0.734,0.354,0.615,0.577,�쐼,1.5,��
2021/10/06,23:50,0.576,0.854,0.546,1.044,0.733,0.353,0.614,0.579,�쐼,1.5,��
